Location: Kerguer�zec
(48.4509°N, 4.7600°W)
Time: 07:02:18
(UTC+00:00)

COSMOS 2406 - Pass Details

Date: 09 April 2020
Orbit: 842 x 865 km, 71.0° (Epoch: 23 May)

Event Time Altitude Azimuth Distance (km) Brightness Sun altitude
Exits shadow 20:55:05 27° 151° (SSE) 1,573 4.1 -17.8°
Maximum altitude 20:57:19 38° 107° (ESE) 1,281 3.7 -18.1°
Drops below altitude 10° 21:02:31 10° 41° (NE) 2,490 5.6 -18.8°
Sets 21:05:08 0° 34° (NE) 3,434 6.4 -19.2°
